Location: La Coruña
(43.3623°N, 8.4115°W)
Time: 07:15:01
(UTC+01:00)

STARLINK-1074 - Pass Details

Date: 18 January 2020
Orbit: 348 x 350 km, 53.0° (Epoch: 22 February)

Event Time Altitude Azimuth Distance (km) Brightness Sun altitude
Rises 20:19:19 0° 263° (W) 2,157 8.3 -20.2°
Reaches altitude 10° 20:21:31 10° 277° (W) 1,317 6.6 -20.6°
Enters shadow 20:23:46 25° 326° (NNW) 758 4.5 -21.0°
